This demonstration page uses our WeatherBlox Daily Observations layout. Learn more.

Left ArrowRight Arrow

39.92423, -83.80882

Hourly Observations for October 4, 2020

Temp ( °F °C ) Dew Point ( °F °C ) Humidity (%) Winds ( mph kmh ) Pressure ( in mb ) Visibility ( mi km ) Precip ( " mm )
12:56 am 00:56 Cloudy 51 10.6 49 9.4 92 92 Calm 30.17 1022 10 16.0934 0 0
1:56 am 01:56 Mostly Cloudy 51 10.6 47 8.3 86 86 SSE 3 6 30.16 1021 10 16.0934 0 0
2:56 am 02:56 Cloudy 50 10 48 8.9 93 93 SE 3 6 30.15 1021 10 16.0934 0 0
3:56 am 03:56 Cloudy 50 10 50 10 100 100 Calm 30.14 1021 10 16.0934 0.001 0.001
4:56 am 04:56 Cloudy 50 10 49 9.4 96 96 S 3 6 30.14 1021 10 16.0934 0 0
5:56 am 05:56 Cloudy 51 10.6 48 8.9 89 89 S 3 6 30.13 1020 10 16.0934 0 0
6:56 am 06:56 Cloudy 50 10 49 9.4 96 96 SSE 3 6 30.13 1020 10 16.0934 0 0
7:56 am 07:56 Cloudy 50 10 48 8.9 93 93 S 7 11 30.13 1020 10 16.0934 0 0
8:56 am 08:56 Cloudy 52 11.1 48 8.9 86 86 S 3 6 30.12 1020 10 16.0934 0 0
9:56 am 09:56 Cloudy 53 11.7 49 9.4 86 86 SE 5 7 30.11 1020 10 16.0934 0 0
10:56 am 10:56 Cloudy 62 16.7 48 8.9 60 60 VRB 7 11 30.1 1019 10 16.0934 0 0
11:56 am 11:56 Cloudy 64 17.8 45 7.2 50 50 SW 13 20 30.08 1019 10 16.0934 0 0
12:56 pm 12:56 Cloudy 63 17.2 46 7.8 54 54 SSW 9 15 30.08 1019 10 16.0934 0.01 0.254
1:56 pm 13:56 Cloudy 65 18.3 46 7.8 51 51 SW 10 17 30.04 1017 10 16.0934 0 0
2:37 pm 14:37 Cloudy with Light Rain 52 11 52 11 100 100 NNW 17 28 30.08 1019 10 16.0934 0.001 0.001
2:56 pm 14:56 Cloudy with Rain 51 10.6 51 10.6 100 100 NW 9 15 30.1 1019 6 9.65604 0 0
3:03 pm 15:03 Cloudy with Rain 52 11 52 11 100 100 NW 9 15 30.1 1019 5 8.0467 0 0
3:56 pm 15:56 Cloudy with Light Rain 51 10.6 51 10.6 100 100 N 3 6 30.08 1019 10 16.0934 0 0
4:26 pm 16:26 Cloudy 54 12 54 12 100 100 WNW 12 19 30.08 1019 10 16.0934 0 0
4:39 pm 16:39 Cloudy 54 12 54 12 100 100 WNW 13 20 30.08 1019 10 16.0934 0 0
4:56 pm 16:56 Cloudy 53 11.7 52 11.1 96 96 NW 12 19 30.1 1019 10 16.0934 0 0
5:29 pm 17:29 Cloudy 52 11 52 11 100 100 NW 8 13 30.11 1020 10 16.0934 0 0
5:44 pm 17:44 Cloudy 52 11 52 11 100 100 NNW 13 20 30.11 1020 10 16.0934 0 0
5:56 pm 17:56 Cloudy 51 10.6 50 10 96 96 NW 10 17 30.12 1020 10 16.0934 0 0
6:11 pm 18:11 Cloudy 50 10 48 9 94 94 NNW 13 20 30.12 1020 10 16.0934 0 0
6:32 pm 18:32 Cloudy 50 10 48 9 94 94 NW 8 13 30.14 1021 10 16.0934 0 0
6:41 pm 18:41 Cloudy 50 10 48 9 94 94 NW 9 15 30.14 1021 10 16.0934 0 0
6:52 pm 18:52 Cloudy 50 10 48 9 94 94 NW 7 11 30.14 1021 10 16.0934 0 0
6:56 pm 18:56 Cloudy 50 10 49 9.4 96 96 NW 7 11 30.15 1021 10 16.0934 0 0
7:56 pm 19:56 Cloudy 49 9.4 49 9.4 100 100 WNW 7 11 30.16 1022 10 16.0934 0 0
8:56 pm 20:56 Partly Cloudy 48 8.9 48 8.9 100 100 WNW 6 9 30.18 1022 10 16.0934 0 0
9:56 pm 21:56 Mostly Cloudy 47 8.3 47 8.3 100 100 W 6 9 30.2 1023 10 16.0934 0 0
10:56 pm 22:56 Clear 45 7.2 45 7.2 100 100 W 5 7 30.22 1023 10 16.0934 0 0
11:56 pm 23:56 Clear 44 6.7 44 6.7 100 100 WNW 7 11 30.22 1023 10 16.0934 0 0

Powered by AerisWeather